Hourly Data Report for January 31, 2004

All times are specified in Local Standard Time (LST). Add 1 hour to adjust for Daylight Saving Time where and when it is observed.

SHERBROOKE A
QUEBEC

45°26'00.000" N
71°41'00.000" W
241.40 m
7028124
71610
YSC

Download Data

Hourly Data (January 2004)
Hourly Data Report for January 31, 2004
TIME Temp Definition
°C
Dew Point Temp Definition
°C
Rel Hum Definition
%
Wind Dir Definition
10's deg

Wind Spd Definition
km/h
Visibility Definition
km
Stn Press Definition
kPa
Hmdx Definition


Wind Chill Definition


Weather Definition


00:00 -18.3 -22.1 72 21 6 15.0 96.94   -23  
01:00 -17.8 -21.7 71 21 7 15.0 96.97   -23  
02:00 -17.3 -21.1 72 23 9 15.0 97.02   -24  
03:00 -17.1 -21.0 72 23 7 15.0 97.09   -22  
04:00 -17.0 -20.9 72 25 7 15.0 97.15   -22 Snow
05:00 -16.8 -20.7 72 25 11 2.3 97.20   -24 Snow
06:00 -16.7 -20.7 71 25 11 1.9 97.29   -24  
07:00 -16.7 -21.2 68 26 11 15.0 97.38   -24  
08:00 -16.5 -21.1 68 26 15 12.9 97.49   -25 Snow
09:00 -16.3 -21.3 65 26 17 19.3 97.54   -25 Snow Showers
10:00 -15.4 -20.8 63 27 19 19.3 97.58   -24 Snow Showers
11:00 -15.2 -20.4 64 27 20 12.9 97.60   -24 Snow Showers
12:00 -14.5 -19.8 64 27 20 16.1 97.61   -24 Snow Showers
13:00 -14.2 -19.8 62 29 22 19.3 97.67   -24 Snow Showers
14:00 -14.0 -19.2 65 27 22 12.9 97.75   -23 Snow Showers
15:00 -13.5 -19.2 62 27 22 4.8 97.84   -23 Snow Showers
16:00 -13.5 -18.7 65 27 13 19.3 97.93   -20 Snow Showers
17:00 -14.2 -19.5 64 25 11 11.3 98.03   -21 Snow Showers
18:00 -14.1 -18.9 67 26 15 6.4 98.12   -22 Snow
19:00 -14.5 -19.1 68 25 13 15.0 98.21   -22  
20:00 -14.6 -18.9 70 25 13 11.3 98.30   -22  
21:00 -14.7 -19.0 70 23 9 15.0 98.40   -20  
22:00 -14.5 -18.7 70 24 7 15.0 98.48   -19  
23:00 -14.6 -18.7 71 19 6 15.0 98.56   -19  

Notes on Data Quality.

Legend

  • E = Estimated
  • M = Missing
  • NA = Not Available
Date modified: